WetterOnline ( https://www.wetteronline.ch )

Wetter aktuell Lübeck

Aktuelles Wetter: Lübeck/Blankensee (15m)

6-stündlich | Neueste Meldungen
Ortszeit Temperatur Wetter
Do, 22.08. 2:00 10.1° C wolkenlos
Mi, 21.08. 20:00 18.9° C bewölkt
Mi, 21.08. 14:00 19.8° C fast wolkenlos
Mi, 21.08. 8:00 13.5° C wolkenlos
Mi, 21.08. 2:00 13.3° C bewölkt
Di, 20.08. 20:00 19.5° C bewölkt
Di, 20.08. 14:00 20.3° C bewölkt
Di, 20.08. 8:00 14.3° C wolkenlos
Ortszeit Temperatur Wetter
Do, 22.08. 6:30 8.5° C wolkig
Do, 22.08. 6:20 8.5° C wolkig
Do, 22.08. 6:10 8.3° C wolkig
Do, 22.08. 6:00 8.2° C wolkig
Do, 22.08. 5:50 8.2° C wolkig
Do, 22.08. 5:40 8.5° C leicht bewölkt
Do, 22.08. 5:30 9.1° C fast wolkenlos
Do, 22.08. 5:00 8.9° C wolkenlos
Do, 22.08. 4:30 9.2° C leicht bewölkt
Do, 22.08. 4:00 9.4° C fast wolkenlos
Do, 22.08. 3:30 9.6° C wolkenlos
Ortszeit Relative Feuchte Sichtweite
Do, 22.08. 2:00 97% 28 km
Mi, 21.08. 20:00 59% 65 km
Mi, 21.08. 14:00 53% 55 km
Mi, 21.08. 8:00 91% 26 km
Mi, 21.08. 2:00 97% 20 km
Di, 20.08. 20:00 56% 60 km
Di, 20.08. 14:00 51% >70 km
Di, 20.08. 8:00 78% >70 km
Ortszeit Relative Feuchte Sichtweite
Do, 22.08. 6:30 99% 15 km
Do, 22.08. 6:20 99% -
Do, 22.08. 6:10 100% -
Do, 22.08. 6:00 99% 2.3 km
Do, 22.08. 5:50 99% -
Do, 22.08. 5:40 99% -
Do, 22.08. 5:30 99% 40 km
Do, 22.08. 5:00 99% 35 km
Do, 22.08. 4:30 100% 27 km
Do, 22.08. 4:00 99% 45 km
Do, 22.08. 3:30 100% 40 km
Ortszeit Niederschlagsmenge Niederschlagsart
Do, 22.08. 2:00 0.0 l/m2 in 6 Std. -
Mi, 21.08. 20:00 0.0 l/m2 in 12 Std. -
Mi, 21.08. 14:00 0.0 l/m2 in 6 Std. -
Mi, 21.08. 8:00 8 l/m2 in 12 Std. -
Mi, 21.08. 2:00 8 l/m2 in 6 Std. Regen
Di, 20.08. 20:00 0.0 l/m2 in 12 Std. -
Di, 20.08. 14:00 0.0 l/m2 in 6 Std. -
Di, 20.08. 8:00 0.0 l/m2 in 12 Std. -
Ortszeit Niederschlagsmenge Niederschlagsart
Do, 22.08. 6:30 0.0 l/m2 in 1 Std. -
Do, 22.08. 6:20 keine Meldung -
Do, 22.08. 6:10 keine Meldung -
Do, 22.08. 6:00 0.0 l/m2 in 1 Std. -
Do, 22.08. 5:50 keine Meldung -
Do, 22.08. 5:40 keine Meldung -
Do, 22.08. 5:30 0.0 l/m2 in 1 Std. -
Do, 22.08. 5:00 0.0 l/m2 in 1 Std. -
Do, 22.08. 4:30 0.0 l/m2 in 1 Std. -
Do, 22.08. 4:00 0.0 l/m2 in 1 Std. -
Do, 22.08. 3:30 0.0 l/m2 in 1 Std. -
Ortszeit Stärke Spitze Richtung
km/h Bft. km/h Grad Sektor
Do, 22.08. 2:00 0 0 7 - -
Mi, 21.08. 20:00 7 2 29 300° NW
Mi, 21.08. 14:00 15 3 31 260° W
Mi, 21.08. 8:00 4 1 11 220° SW
Mi, 21.08. 2:00 7 2 22 180° S
Di, 20.08. 20:00 6 1 24 310° NW
Di, 20.08. 14:00 13 3 28 250° W
Di, 20.08. 8:00 7 2 18 180° S
Ortszeit Stärke Spitze Richtung
km/h Bft. km/h Grad Sektor
Do, 22.08. 6:30 0 0 4 - -
Do, 22.08. 6:20 0 0 - 70° O
Do, 22.08. 6:10 2 1 - 110° O
Do, 22.08. 6:00 4 1 4 60° NO
Do, 22.08. 5:50 4 1 - 60° NO
Do, 22.08. 5:40 2 1 - 80° O
Do, 22.08. 5:30 2 1 4 40° NO
Do, 22.08. 5:00 0 0 4 - -
Do, 22.08. 4:30 0 0 4 - -
Do, 22.08. 4:00 0 0 4 - -
Do, 22.08. 3:30 0 0 4 - -
Ortszeit Untergrenze Bedeckung Gattung
total tief tief mittel hoch
Do, 22.08. 2:00 9000 m 0/8 0/8 - - -
Mi, 21.08. 20:00 2100 m 7/8 7/8 - - -
Mi, 21.08. 14:00 2100 m 1/8 1/8 - - -
Mi, 21.08. 8:00 - 0/8 0/8 - - -
Mi, 21.08. 2:00 2700 m 8/8 7/8 - - -
Di, 20.08. 20:00 1500 m 7/8 7/8 - - -
Di, 20.08. 14:00 1320 m 7/8 7/8 - - -
Di, 20.08. 8:00 - 0/8 0/8 - - -
Ortszeit Bedeckungsgrad in Achtel und Wolkenuntergrenze
Do, 22.08. 6:30 6(9000m) 7(9000m) 7(10500m)
Do, 22.08. 6:20 6(9000m) 7(9000m) 7(10500m)
Do, 22.08. 6:10 1(8400m) 7(9000m) 7(10500m)
Do, 22.08. 6:00 5(8700m) 7(9000m) 7(10500m)
Do, 22.08. 5:50 5(8700m) 7(9000m) 7(10500m)
Do, 22.08. 5:40 5(8700m)
Do, 22.08. 5:30 1(8700m)
Do, 22.08. 5:00 1(8700m)
Do, 22.08. 4:30 6(9000m)
Do, 22.08. 4:00 2(9000m) 1(9000m)
Do, 22.08. 3:30 4(9000m)
Ortszeit Luftdruck NN (hPa) Tendenz (hPa in 3 Std.)
Do, 22.08. 2:00 1029 - 0,2
Mi, 21.08. 20:00 1028 + 0,1
Mi, 21.08. 14:00 1028 + 0,1
Mi, 21.08. 8:00 1027 + 1,4
Mi, 21.08. 2:00 1025 + 0,9
Di, 20.08. 20:00 1022 + 0,5
Di, 20.08. 14:00 1021 + 0,4
Di, 20.08. 8:00 1020 + 0,8
Ortszeit Luftdruck NN (hPa) Tendenz (hPa in 3 Std.)
Do, 22.08. 6:30 1028 - 0,4
Do, 22.08. 6:20 1028 keine Meldung
Do, 22.08. 6:10 1028 keine Meldung
Do, 22.08. 6:00 1028 - 0,5
Do, 22.08. 5:50 1028 keine Meldung
Do, 22.08. 5:40 1028 keine Meldung
Do, 22.08. 5:30 1028 - 0,5
Do, 22.08. 5:00 1028 - 0,4
Do, 22.08. 4:30 1028 - 0,2
Do, 22.08. 4:00 1028 - 0,5
Do, 22.08. 3:30 1028 - 0,5
Ortszeit Schneehöhe (cm)
Do, 22.08. 2:00 -
Mi, 21.08. 20:00 -
Mi, 21.08. 14:00 -
Mi, 21.08. 8:00 -
Mi, 21.08. 2:00 -
Di, 20.08. 20:00 -
Di, 20.08. 14:00 -
Di, 20.08. 8:00 -
Ortszeit Schneehöhe (cm)
Do, 22.08. 6:30 -
Do, 22.08. 6:20 -
Do, 22.08. 6:10 -
Do, 22.08. 6:00 -
Do, 22.08. 5:50 -
Do, 22.08. 5:40 -
Do, 22.08. 5:30 -
Do, 22.08. 5:00 -
Do, 22.08. 4:30 -
Do, 22.08. 4:00 -
Do, 22.08. 3:30 -
Link zu dieser Seite / Seite empfehlen

Das Wetter in ...